sat.trackr.live / text

‹ back to catalog

STARLINK-32959

NORAD 63569 · 2025-076A

PAYLOAD ACTIVE UNKNOWN

§ Identity

Operator
Country
US
Launch date
2025-04-14
Launch site
AFETR
Launch vehicle
Mass (kg)
RCS (m²)

Purposes: comms

External: N2YO · Heavens-Above · Gunter

§ Orbital elements

Epoch: 2026-05-24T18:56:26.333088Z

Period
94.27 min
Inclination
42.9988°
Eccentricity
0.0001912
Mean motion
15.27594461 rev/d
Perigee alt
481.7 km
Apogee alt
484.3 km
Semi-major
6,861.1 km
B*
6.5612e-4
RAAN
255.9046°
Arg perigee
278.0604°
Mean anomaly
82.0031°
Rev number
6,342

§ Raw data

STARLINK-329591 63569U 25076A   26144.78919367  .00017845  00000+0  65612-3 0  99932 63569  42.9988 255.9046 0001912 278.0604  82.0031 15.27594461 63425

JSON: /api/v1/satellites/63569 · /tle

For live sub-satellite position, see the globe view (requires WebGL).

§ Visibility from observer

Set your observer location to see the next 7 days of passes ≥ 10°. The values pass through the URL so the page stays shareable.

No JS? Fill the form by hand. The geolocation button needs JavaScript.